Other Public Products
Issued by NWS Grand Forks, ND

Home | Current Version | Previous Version | Text Only | Print | Product List | Glossary Off
Versions: 1 2 3 4 5 6 7 8 9 10 11 12 13 14 15 16 17 18 19 20 21 22 23 24 25 26 27 28 29 30 31 32 33 34 35 36 37 38 39 40 41 42 43 44 45 46 47 48 49 50

000
FPUS83 KFGF 301831
OPUFGF
PRAIRIE TO PINES WEATHER ROUNDUP
NATIONAL WEATHER SERVICE EASTERN NORTH DAKOTA/GRAND FORKS ND
100 PM CDT WED JUL 30 2014

 **SATELLITE DATA USED TO AUGMENT SKY COVER AT AUTOMATED STATIONS**
 *****  WEATHER ACROSS EASTERN NORTH DAKOTA  *****

CITY           SKY/WX    TMP DP  RH WIND       PRES   REMARKS
GRAND FORKS    FAIR      79  57  46 N7        30.09F
6HR MIN TEMP:  55; 6HR MAX TEMP:  79;

GRAND FORKS AF FAIR      78  57  49 N10       30.11F
GRAND CITY NWS   N/A     79 N/A N/A N5          N/A
BUXTON           N/A     80  55  41 NW9         N/A
DEVILS LAKE    FAIR      75  54  46 NW5       30.12F
6HR MIN TEMP:  54; 6HR MAX TEMP:  75;

FARGO          FAIR      78  52  40 W7        30.11F
6HR MIN TEMP:  55; 6HR MAX TEMP:  79;

WAHPETON ARPT  FAIR      77  46  33 NW10      30.12F
$$

 *****  WEATHER ACROSS CENTRAL AND WESTERN NORTH DAKOTA  *****

CITY           SKY/WX    TMP DP  RH WIND       PRES   REMARKS
JAMESTOWN      FAIR      76  51  41 N6        30.14F
6HR MIN TEMP:  51; 6HR MAX TEMP:  77;

BISMARCK       MOSUNNY   79  56  45 N7        30.15F
6HR MIN TEMP:  54; 6HR MAX TEMP:  81;

MINOT          FAIR      77  57  50 CALM      30.15F
6HR MIN TEMP:  56; 6HR MAX TEMP:  78;

MINOT AFB      FAIR      75  58  55 VRB3      30.14F
6HR MIN TEMP:  56; 6HR MAX TEMP:  76;

GARRISON         N/A     76  60  57 SW5       30.16F
6HR MIN TEMP:  54; 6HR MAX TEMP:  77;

WILLISTON      SUNNY     81  50  33 N13       30.18F
6HR MIN TEMP:  54; 6HR MAX TEMP:  82;

DICKINSON      MOSUNNY   78  53  41 NW6       30.17F
6HR MIN TEMP:  49; 6HR MAX TEMP:  79;

HETTINGER      SUNNY     79  55  43 N9        30.19F
6HR MIN TEMP:  46; 6HR MAX TEMP:  79;

$$

 *****  OTHER OBSERVATIONS NORTHEAST NORTH DAKOTA  *****

CITY           SKY/WX    TMP DP  RH WIND       PRES   REMARKS
WALHALLA       FAIR      77  55  47 N9          N/A
LANGDON        FAIR      77  55  47 NW14      30.12F
CAVALIER       FAIR      77  55  47 N9        30.09F
GRAFTON        FAIR      77  54  44 NW9       30.09S
CANDO          FAIR      75  57  53 NW6       30.13F
FORT TOTTEN      N/A     79  62  55 NW3       29.95S
ROLLA            N/A     75  55  50 NW8G16    30.15F
RUGBY          FAIR      75  59  57 W7        30.14S
 ***** THE ABOVE OBSERVATIONS ARE NON NWS ARE NOT QUALITY
        CONTROLLED AND MAY MIS-REPORT RAIN FOR SNOW...
$$

 *****  OTHER OBSERVATIONS SOUTHEAST NORTH DAKOTA *****

CITY           SKY/WX    TMP DP  RH WIND       PRES   REMARKS
COOPERSTOWN    NOT AVBL
VALLEY CITY    FAIR      77  52  41 N9        30.14F
OAKES          NOT AVBL
GWINNER        PTCLDY    75  54  46 N5        30.14F
SHEYENNE NWR     N/A     79  53  40 N5        29.95S
BUFFALO          N/A     78  46  32 N8          N/A
WYNDMERE       NOT AVBL
 ***** THE ABOVE OBSERVATIONS ARE NON NWS ARE NOT QUALITY
       CONTROLLED AND MAY MIS-REPORT RAIN FOR SNOW...
$$

  *****  WEATHER ACROSS NORTHERN MINNESOTA  *****

CITY           SKY/WX    TMP DP  RH WIND       PRES   REMARKS
FLAG ISLAND    FAIR      75  55  50 NW12      30.03F
WARROAD        FAIR      77  57  50 NW13      30.06F
ROSEAU         FAIR      77  61  57 NW12      30.07F
HALLOCK        FAIR      79  54  41 NW8       30.08F
THF RVR FALLS  FAIR      75  54  46 NW10      30.10F
6HR MIN TEMP:  55; 6HR MAX TEMP:  73;

HALSTAD          N/A     79  52  39 NW5         N/A
FOSSTON        FAIR      73  57  56 NW8       30.11F
BAUDETTE       FAIR      77  58  51 NW12G20   30.06F
6HR MIN TEMP:  59; 6HR MAX TEMP:  77;

WASKISH        FAIR      77  57  50 W8        30.06F
CROOKSTON      FAIR      75  55  50 NW5       30.10F
$$
  *****  WEATHER ACROSS CENTRAL AND WEST MINNESOTA  *****

CITY           SKY/WX    TMP DP  RH WIND       PRES   REMARKS
BEMIDJI        PTSUNNY   74  56  52 NW10      30.09F
PARK RAPIDS    FAIR      77  52  41 NW14      30.10F
6HR MIN TEMP:  52; 6HR MAX TEMP:  77;

WADENA         FAIR      75  55  50 NW12      30.10F
DETROIT LAKES  FAIR      75  52  43 NW9G16    30.13F
MOORHEAD       FAIR      77  54  44 N9        30.11F
FERGUS FALLS   FAIR      75  52  43 NW6       30.11F
ELBOW LAKE     FAIR      74  58  57 NW8       30.12F
6HR MIN TEMP:  56; 6HR MAX TEMP:  73;

MORRIS MN      FAIR      77  55  47 NW6       30.12F
STAPLES        FAIR      77  52  41 NW9       30.09F
WHEATON        FAIR      73  55  53 W7        30.14S
$$
  *****  WEATHER ELSEWHERE ACROSS MINNESOTA  *****

CITY           SKY/WX    TMP DP  RH WIND       PRES   REMARKS
DULUTH         PTSUNNY   74  59  59 W10G17    30.03F
6HR MIN TEMP:  52; 6HR MAX TEMP:  75;

INTRNTL FALLS  FAIR      76  58  53 NW15G21   30.02F
6HR MIN TEMP:  52; 6HR MAX TEMP:  76;

ELY            FAIR      70  57  64 NW9       30.00F
CLOQUET        FAIR      75  57  53 W12       30.03F
BRAINERD       FAIR      76  57  51 NW8G20    30.08F
6HR MIN TEMP:  54; 6HR MAX TEMP:  76;

HIBBING        FAIR      76  59  55 NW17      30.04F
6HR MIN TEMP:  49; 6HR MAX TEMP:  77;

ALEXANDRIA     FAIR      74  55  51 NW10      30.13F
6HR MIN TEMP:  59; 6HR MAX TEMP:  76;

SAINT CLOUD    FAIR      80  54  40 NW10      30.08F
6HR MIN TEMP:  60; 6HR MAX TEMP:  81;

MINNEAPOLIS    FAIR      80  57  45 W10G17    30.07F
6HR MIN TEMP:  62; 6HR MAX TEMP:  80;

$$

  *****  WEATHER ACROSS SOUTH DAKOTA  *****

CITY           SKY/WX    TMP DP  RH WIND       PRES   REMARKS
SIOUX FALLS    FAIR      77  56  48 E7        30.15F
6HR MIN TEMP:  53; 6HR MAX TEMP:  77;

BROOKINGS      NOT AVBL
WATERTOWN      PTSUNNY   74  53  48 N8        30.15F
6HR MIN TEMP:  50; 6HR MAX TEMP:  75;

HURON          SUNNY     78  53  41 NW3       30.14F
6HR MIN TEMP:  51; 6HR MAX TEMP:  78;

SISSETON         N/A     76  54  46 N7        30.12F
ABERDEEN       MOSUNNY   78  54  43 E5        30.13F
6HR MIN TEMP:  50; 6HR MAX TEMP:  78;

MITCHELL       SUNNY     78  54  43 E8        30.15F
PIERRE         SUNNY     81  53  37 VRB5      30.12F
6HR MIN TEMP:  60; 6HR MAX TEMP:  83;

MOBRIDGE       MOSUNNY   80  56  43 SE6       30.11F
RAPID CITY     MOSUNNY   80  55  42 VRB5      30.19F
6HR MIN TEMP:  54; 6HR MAX TEMP:  80;

$$

  *****  SOME WEATHER IN NEARBY STATES *****

CITY           SKY/WX    TMP DP  RH WIND       PRES   REMARKS
GLASGOW MT     SUNNY     86  49  27 S10       30.15F
6HR MIN TEMP:  56; 6HR MAX TEMP:  86;

GREAT FALLS MT SUNNY     89  40  17 SE7       30.15F
6HR MIN TEMP:  63; 6HR MAX TEMP:  89;

CHEYENNE WY    LGT RAIN  57  54  89 E5        30.38S FOG
6HR MIN TEMP:  56; 6HR MAX TEMP:  58; 6HR PCP:  0.14;

SCOTTSBLUFF NE CLOUDY    74  57  55 VRB5      30.27F
6HR MIN TEMP:  62; 6HR MAX TEMP:  75;

OMAHA NE       FAIR      80  54  40 N9        30.14F
6HR MIN TEMP:  56; 6HR MAX TEMP:  80;

DES MOINES IA  FAIR      77  54  44 NE7       30.11F
6HR MIN TEMP:  60; 6HR MAX TEMP:  80;

DAVENPORT IA   FAIR      77  60  55 W9        30.08F
6HR MIN TEMP:  54; 6HR MAX TEMP:  77;

CHICAGO IL     FAIR      78  52  40 W8        30.03F
6HR MIN TEMP:  63; 6HR MAX TEMP:  78;

EAU CLAIRE WI  FAIR      72  55  55 VRB5      30.07F
6HR MIN TEMP:  54; 6HR MAX TEMP:  73;

LA CROSSE WI   FAIR      74  59  59 W5        30.07F
6HR MIN TEMP:  60; 6HR MAX TEMP:  74;

$$

  *****  SOME NATIONAL WEATHER *****

CITY           SKY/WX    TMP DP  RH WIND       PRES   REMARKS



USA.gov is the U.S. government's official web portal to all federal, state and local government web resources and services.